| time (UTC) | temp C | wind direction | speed KPH | gust KPH | rain 1hr cm | rain 24hr cm | rain mn cm | humidity % | barometer mb |
| 20260504050009 | 19 | 326 | 17.7 | 35.4 | 0.00 | 0.18 | 0.03 | 53 | 1007.9 |
| 20260504045009 | 20 | 333 | 20.9 | 32.2 | 0.00 | 0.18 | 0.03 | 52 | 1007.8 |
| 20260504044009 | 20 | 350 | 19.3 | 33.8 | 0.00 | 0.18 | 0.03 | 53 | 1007.8 |
| 20260504043009 | 19 | 332 | 16.1 | 29.0 | 0.00 | 0.18 | 0.03 | 54 | 1007.7 |
| 20260504042010 | 19 | 337 | 14.5 | 32.2 | 0.00 | 0.18 | 0.03 | 54 | 1007.7 |
| 20260504041009 | 18 | 339 | 14.5 | 27.4 | 0.00 | 0.18 | 0.03 | 55 | 1007.8 |
| 20260504040008 | 18 | 336 | 14.5 | 35.4 | 0.00 | 0.18 | 0.03 | 54 | 1007.9 |
| 20260504035009 | 18 | 330 | 11.3 | 32.2 | 0.00 | 0.18 | 0.03 | 56 | 1008.0 |
| 20260504034009 | 18 | 339 | 16.1 | 33.8 | 0.00 | 0.18 | 0.03 | 55 | 1008.0 |
| 20260504033009 | 18 | 333 | 17.7 | 32.2 | 0.00 | 0.18 | 0.03 | 55 | 1008.1 |
| 20260504032009 | 19 | 331 | 19.3 | 33.8 | 0.00 | 0.18 | 0.03 | 54 | 1008.2 |
| 20260504031009 | 19 | 337 | 16.1 | 33.8 | 0.00 | 0.18 | 0.03 | 57 | 1008.3 |
| 20260504030009 | 18 | 333 | 14.5 | 33.8 | 0.00 | 0.18 | 0.03 | 58 | 1008.5 |
| 20260504025009 | 18 | 346 | 19.3 | 37.0 | 0.00 | 0.18 | 0.03 | 59 | 1008.7 |
| 20260504024009 | 18 | 321 | 19.3 | 35.4 | 0.00 | 0.18 | 0.03 | 57 | 1008.6 |
| 20260504023009 | 18 | 336 | 9.7 | 40.2 | 0.00 | 0.18 | 0.03 | 58 | 1008.9 |
| 20260504022009 | 18 | 327 | 16.1 | 37.0 | 0.00 | 0.20 | 0.03 | 58 | 1008.9 |
| 20260504021010 | 19 | 321 | 11.3 | 33.8 | 0.03 | 0.23 | 0.03 | 59 | 1009.0 |
| 20260504020009 | 18 | 325 | 14.5 | 37.0 | 0.03 | 0.38 | 0.03 | 60 | 1009.1 |
| 20260504015009 | 18 | 342 | 16.1 | 33.8 | 0.03 | 0.48 | 0.03 | 60 | 1009.1 |
| 20260504014009 | 18 | 347 | 17.7 | 37.0 | 0.03 | 0.61 | 0.03 | 60 | 1009.3 |
| 20260504013009 | 18 | 339 | 17.7 | 37.0 | 0.03 | 0.69 | 0.03 | 60 | 1009.5 |
| 20260504012009 | 18 | 339 | 16.1 | 40.2 | 0.03 | 0.76 | 0.03 | 61 | 1009.6 |
| 20260504011009 | 18 | 323 | 16.1 | 27.4 | 0.00 | 0.74 | 0.00 | 62 | 1009.8 |
| 20260504010009 | 18 | 343 | 19.3 | 32.2 | 0.00 | 0.76 | 0.00 | 62 | 1009.8 |
| 20260504005009 | 18 | 342 | 19.3 | 32.2 | 0.00 | 0.84 | 0.00 | 62 | 1009.9 |
| 20260504004009 | 17 | 346 | 16.1 | 29.0 | 0.00 | 0.86 | 0.00 | 63 | 1009.9 |
| 20260504003009 | 17 | 328 | 14.5 | 29.0 | 0.00 | 0.86 | 0.00 | 63 | 1009.9 |
| 20260504002009 | 17 | 315 | 17.7 | 32.2 | 0.00 | 0.86 | 0.00 | 62 | 1010.0 |
| 20260504001009 | 17 | 348 | 12.9 | 25.7 | 0.00 | 0.86 | 0.00 | 63 | 1010.0 |
| 20260504000009 | 17 | 0 | 11.3 | 25.7 | 0.00 | 0.86 | 0.00 | 65 | 1009.9 |
| 20260503235009 | 17 | 355 | 12.9 | 27.4 | 0.00 | 0.86 | 0.00 | 66 | 1010.0 |
| 20260503234009 | 17 | 19 | 8.0 | 19.3 | 0.00 | 0.86 | 0.00 | 67 | 1010.2 |
| 20260503233009 | 16 | 29 | 8.0 | 14.5 | 0.00 | 0.86 | 0.00 | 70 | 1010.2 |
| 20260503232011 | 16 | 28 | 6.4 | 12.9 | 0.00 | 0.86 | 0.00 | 71 | 1010.3 |
| 20260503231009 | 15 | 15 | 4.8 | 8.0 | 0.00 | 0.86 | 0.00 | 72 | 1010.3 |
| 20260503230009 | 15 | 7 | 4.8 | 11.3 | 0.00 | 0.86 | 0.00 | 74 | 1010.4 |
| 20260503225009 | 14 | 5 | 4.8 | 9.7 | 0.00 | 0.86 | 0.00 | 76 | 1010.5 |
| 20260503224009 | 13 | 5 | 4.8 | 9.7 | 0.00 | 0.86 | 0.00 | 79 | 1010.5 |
| 20260503223009 | 13 | 21 | 4.8 | 11.3 | 0.00 | 0.86 | 0.00 | 81 | 1010.5 |
| 20260503222009 | 12 | 17 | 4.8 | 11.3 | 0.00 | 0.86 | 0.00 | 83 | 1010.6 |
| 20260503221009 | 11 | 24 | 4.8 | 12.9 | 0.00 | 0.86 | 0.00 | 85 | 1010.6 |
| 20260503220009 | 11 | 16 | 4.8 | 12.9 | 0.00 | 0.86 | 0.00 | 85 | 1010.6 |
| 20260503215009 | 11 | 16 | 3.2 | 4.8 | 0.00 | 0.86 | 0.00 | 85 | 1010.5 |
| 20260503214009 | 11 | 16 | 3.2 | 11.3 | 0.00 | 0.86 | 0.00 | 86 | 1010.4 |
| 20260503213009 | 11 | 17 | 4.8 | 11.3 | 0.00 | 0.86 | 0.00 | 86 | 1010.4 |
| 20260503212009 | 10 | 18 | 4.8 | 11.3 | 0.00 | 0.86 | 0.00 | 86 | 1010.4 |
| 20260503211009 | 10 | 14 | 3.2 | 8.0 | 0.00 | 0.86 | 0.00 | 86 | 1010.4 |
| 20260503210009 | 10 | 13 | 3.2 | 8.0 | 0.00 | 0.86 | 0.00 | 86 | 1010.4 |
| 20260503205009 | 10 | 15 | 3.2 | 8.0 | 0.00 | 0.86 | 0.00 | 85 | 1010.2 |
| 20260503204009 | 11 | 19 | 3.2 | 8.0 | 0.00 | 0.86 | 0.00 | 85 | 1010.0 |
| 20260503203009 | 11 | 18 | 4.8 | 8.0 | 0.00 | 0.86 | 0.00 | 85 | 1010.0 |
| 20260503202009 | 11 | 17 | 4.8 | 8.0 | 0.00 | 0.86 | 0.00 | 84 | 1009.9 |
| 20260503201009 | 11 | 16 | 4.8 | 11.3 | 0.00 | 0.86 | 0.00 | 84 | 1010.0 |
| 20260503200009 | 12 | 9 | 4.8 | 12.9 | 0.00 | 0.86 | 0.00 | 84 | 1010.0 |
| 20260503195009 | 12 | 11 | 9.7 | 16.1 | 0.00 | 0.86 | 0.00 | 85 | 1010.0 |
| 20260503194009 | 12 | 5 | 6.4 | 14.5 | 0.00 | 0.86 | 0.00 | 85 | 1010.1 |
| 20260503193009 | 12 | 0 | 6.4 | 14.5 | 0.00 | 0.86 | 0.00 | 85 | 1010.2 |
| 20260503192009 | 12 | 354 | 4.8 | 12.9 | 0.00 | 0.86 | 0.00 | 84 | 1010.3 |
| 20260503191009 | 12 | 349 | 4.8 | 9.7 | 0.00 | 0.86 | 0.00 | 84 | 1010.4 |
| 20260503190009 | 12 | 352 | 6.4 | 12.9 | 0.00 | 0.86 | 0.00 | 84 | 1010.5 |
| 20260503185009 | 12 | 354 | 6.4 | 14.5 | 0.00 | 0.86 | 0.00 | 84 | 1010.5 |
| 20260503184009 | 12 | 0 | 9.7 | 16.1 | 0.00 | 0.86 | 0.00 | 84 | 1010.5 |
| 20260503183009 | 12 | 358 | 9.7 | 19.3 | 0.00 | 0.86 | 0.00 | 84 | 1010.6 |
| 20260503182009 | 12 | 0 | 8.0 | 14.5 | 0.00 | 0.86 | 0.00 | 84 | 1010.7 |
| 20260503181010 | 12 | 341 | 6.4 | 12.9 | 0.00 | 0.86 | 0.00 | 84 | 1010.8 |
| 20260503180009 | 12 | 350 | 8.0 | 16.1 | 0.00 | 0.86 | 0.00 | 84 | 1010.9 |
| 20260503175010 | 12 | 358 | 6.4 | 14.5 | 0.00 | 0.86 | 0.00 | 84 | 1010.9 |
| 20260503174009 | 12 | 350 | 8.0 | 16.1 | 0.00 | 0.86 | 0.00 | 84 | 1010.8 |
| 20260503173009 | 12 | 350 | 6.4 | 16.1 | 0.00 | 0.86 | 0.00 | 84 | 1010.9 |
| 20260503172010 | 12 | 356 | 6.4 | 14.5 | 0.00 | 0.86 | 0.00 | 84 | 1010.9 |
| 20260503171009 | 12 | 359 | 4.8 | 14.5 | 0.00 | 0.86 | 0.00 | 85 | 1010.9 |
| 20260503151010 | 13 | 28 | 3.2 | 8.0 | 0.00 | 0.86 | 0.00 | 84 | 1011.2 |
| 20260503131009 | 13 | 11 | 3.2 | 8.0 | 0.00 | 0.86 | 0.86 | 83 | 1011.5 |
| 20260503081009 | 16 | 335 | 3.2 | 16.1 | 0.00 | 0.86 | 0.86 | 85 | 1010.1 |